Regional Weather Roundup
Issued by NWS

Home | Current Version | Previous Version | Text Only | Print | Product List | Glossary On
Versions: 1 2 3 4 5 6 7 8 9 10 11 12 13 14 15 16 17 18 19 20 21 22 23 24 25 26 27 28 29 30 31 32 33 34 35 36 37 38 39 40 41 42 43 44 45 46 47 48 49 50
000
ASUS43 KTOP 230908
RWRKS

WEATHER ROUNDUP FOR KANSAS
NATIONAL WEATHER SERVICE GOODLAND KS
300 AM CST THU NOV 23 2017

NOTE:  "FAIR" INDICATES FEW OR NO CLOUDS BELOW 12,000 FEET WITH NO
SIGNIFICANT WEATHER AND/OR OBSTRUCTIONS TO VISIBILITY.

KSZ001>006-013>018-027>032-041>047-231000-
NORTHWEST KANSAS

CITY           SKY/WX    TMP DP  RH WIND       PRES   REMARKS
GOODLAND       CLOUDY    43  37  79 W8        30.16R
HAYS           CLOUDY    34  29  82 W7        30.08S
HILL CITY      CLOUDY    44  36  73 W7        30.08F
RUSSELL        CLOUDY    37  30  75 SW8       30.05S
$$

KSZ061>065-074>080-084>089-231000-
SOUTHWEST KANSAS

CITY           SKY/WX    TMP DP  RH WIND       PRES   REMARKS
DODGE CITY     CLOUDY    45  31  58 W9        30.11S
ELKHART        CLOUDY    50  33  51 W8        30.18R
GARDEN CITY    CLOUDY    43  30  60 NW10      30.13R
GREAT BEND     CLEAR     33  24  69 W3        30.08S
LIBERAL        PTCLDY    48  31  51 NW9       30.14S
PRATT          CLEAR     33  22  63 SW7       30.09S
$$

KSZ066>073-081>083-090>101-231000-
SOUTHEAST KANSAS

CITY           SKY/WX    TMP DP  RH WIND       PRES   REMARKS
CHANUTE        CLOUDY    36  22  56 S8        30.14S
COFFEYVILLE    CLEAR     32  25  75 S6        30.16S
HUTCHINSON     CLOUDY    33  23  66 S5        30.08F
MEDICINE LODGE   N/A     32  22  66 CALM      30.10F
NEWTON         CLEAR     36  21  54 SW12      30.09F WCI  28
PARSONS        CLEAR     32  24  72 S3        30.16S
WICHITA INTL   CLEAR     32  23  69 S5        30.10F
WICHITA JABRA  CLEAR     37  21  52 SW9       30.10F
WICHITA MCCONL CLEAR     33  20  57 SW7       30.10F
WINFIELD       CLEAR     34  23  64 S5        30.14S
$$

KSZ007>012-019>026-033>040-048>060-102>105-231000-
NORTHEAST KANSAS

CITY           SKY/WX    TMP DP  RH WIND       PRES   REMARKS
CONCORDIA      CLEAR     41  23  48 W6        30.04S
EMPORIA        CLOUDY    33  21  61 S5        30.08F
LAWRENCE       CLEAR     31  22  69 CALM      30.09F
MANHATTAN      CLEAR     35  22  58 SW3       30.06F
MARYSVILLE     CLEAR     36  23  60 SW5       30.04S
OLATHE IND     CLEAR     33  22  63 S7        30.09F
OLATHE EXE     MIX PCPN  31  21  66 S8        30.09F
SALINA         CLEAR     35  23  61 S6        30.07F
TOPEKA BILLARD CLEAR     35  22  58 S7        30.08F
TOPEKA FORBES  CLEAR     33  22  63 S7        30.07F
$$




USA.gov is the U.S. government's official web portal to all federal, state and local government web resources and services.